Location: La Tine
(46.4708°N, 7.0525°E)
Time: 11:13:35
(UTC+00:00)

Cosmos 1833 Rocket - Visible Passes

Search period start: 20 June 2021 00:00
Search period end: 30 June 2021 00:00
Orbit: 831 x 841 km, 71.0° (Epoch: 19 June)

Date Brightness Start Highest point End Pass type
(mag) Time Alt. Az. Time Alt. Az. Time Alt. Az.
20 Jun 3.7 02:42:22 10° S 02:47:39 43° ESE 02:52:58 10° NE visible
21 Jun 3.8 02:25:44 10° S 02:30:57 40° ESE 02:36:10 10° NE visible
22 Jun 3.9 02:09:07 10° S 02:14:14 37° ESE 02:19:23 10° NE visible
23 Jun 4.0 01:52:30 10° SSE 01:57:31 34° ESE 02:02:34 10° NE visible
24 Jun 4.0 01:36:07 11° SSE 01:40:49 31° ESE 01:45:44 10° NE visible
25 Jun 4.1 01:19:57 13° SSE 01:24:06 29° ESE 01:28:54 10° NE visible
25 Jun 3.2 03:02:20 10° SW 03:07:47 48° WNW 03:13:16 10° NNE visible
26 Jun 4.2 01:03:44 14° SSE 01:07:24 27° ESE 01:12:04 10° NE visible
26 Jun 3.1 02:45:31 10° SW 02:51:00 52° WNW 02:56:33 10° NNE visible
27 Jun 4.3 00:47:30 15° SE 00:50:43 25° ESE 00:55:13 10° NE visible
27 Jun 3.1 02:29:11 13° SW 02:34:15 56° WNW 02:39:49 10° NNE visible
28 Jun 4.3 00:31:13 16° SE 00:34:00 23° ESE 00:38:20 10° NE visible
28 Jun 3.0 02:12:54 16° SW 02:17:29 60° WNW 02:23:05 10° NNE visible
29 Jun 4.4 00:14:54 16° SE 00:17:20 21° E 00:21:27 10° NE visible
29 Jun 2.9 01:56:36 19° SW 02:00:43 65° WNW 02:06:22 10° NNE visible
